CDT,Max TemperatureF,Mean TemperatureF,Min TemperatureF,Max Dew PointF,MeanDew PointF,Min DewpointF,Max Humidity, Mean Humidity, Min Humidity, Max Sea Level PressureIn, Mean Sea Level PressureIn, Min Sea Level PressureIn, Max VisibilityMiles, Mean VisibilityMiles, Min VisibilityMiles, Max Wind SpeedMPH, Mean Wind SpeedMPH, Max Gust SpeedMPH,PrecipitationIn, CloudCover, Events, WindDirDegrees
2013-4-1,73,64,53,61,55,45,100,82,37,30.05,29.98,29.89,10,9,2,9,4,,0.01,5,,285
2013-4-2,78,63,48,50,46,43,90,58,30,30.14,30.07,30.02,10,10,10,8,3,,0.00,0,,47
2013-4-3,59,56,52,52,44,35,89,66,47,30.12,30.02,29.91,10,10,8,17,7,24,0.10,6,Rain,54
2013-4-4,59,55,50,55,53,48,97,92,83,30.00,29.92,29.88,10,6,1,12,6,21,0.07,8,Rain-Hail,62
2013-4-5,66,56,46,48,45,42,97,74,42,30.10,30.02,29.92,10,10,5,13,7,20,0.05,5,Rain,353
2013-4-6,75,57,39,47,41,36,89,55,25,30.17,30.11,30.07,10,10,10,9,3,,0.00,0,,192
2013-4-7,75,60,44,56,50,42,93,69,42,30.16,30.09,30.04,10,10,10,10,3,21,0.00,1,,180
2013-4-8,79,66,53,57,55,52,96,69,42,30.10,30.06,30.02,10,9,2,10,4,18,0.00,3,,165
2013-4-9,84,70,57,58,57,54,90,62,38,30.12,30.06,30.01,10,10,10,10,6,17,0.00,1,,155
2013-4-10,84,70,57,60,57,54,89,62,38,30.06,29.98,29.91,10,10,7,12,5,22,0.00,1,,159
2013-4-11,79,70,62,70,65,55,100,88,69,29.90,29.75,29.61,10,6,0,22,7,36,2.17,7,Fog-Rain-Thunderstorm,174
2013-4-12,71,61,51,59,46,41,96,63,36,29.96,29.88,29.75,10,10,7,14,9,20,0.00,3,,316
2013-4-13,75,60,44,53,45,40,93,58,28,30.06,29.99,29.96,10,10,10,8,2,,0.00,0,,34
2013-4-14,61,58,55,58,54,48,94,90,64,30.04,29.90,29.75,10,7,1,16,6,26,1.66,7,Rain-Thunderstorm,64
2013-4-15,82,70,59,68,63,58,96,81,54,30.06,29.98,29.88,10,8,1,8,4,,0.00,6,,119
2013-4-16,84,75,66,68,66,64,93,76,56,30.14,30.10,30.06,10,10,10,10,4,,0.00,3,,122
2013-4-17,82,74,66,68,66,62,93,75,58,30.16,30.10,30.03,10,10,5,9,4,,0.00,2,,136
2013-4-18,82,72,62,67,63,60,93,75,52,30.03,29.94,29.86,10,10,10,14,6,23,0.00,2,,153
2013-4-19,73,60,46,70,53,42,94,89,77,30.14,29.96,29.79,10,8,2,16,9,26,0.81,7,Rain,295
2013-4-20,66,54,41,45,38,33,89,61,29,30.25,30.19,30.14,10,10,10,13,5,22,0.00,0,,357
2013-4-21,73,58,43,45,41,37,86,53,33,30.24,30.20,30.14,10,10,10,14,5,20,0.00,0,,57
2013-4-22,71,62,54,57,51,41,87,70,57,30.20,30.14,30.09,10,10,1,9,6,,0.00,3,,75
2013-4-23,75,64,54,58,55,50,90,71,50,30.15,30.10,30.05,10,10,10,9,4,,0.00,3,,153
2013-4-24,73,64,55,65,59,52,100,88,68,30.17,30.09,30.05,10,7,0,10,2,17,0.01,5,Fog-Rain,206
2013-4-25,73,63,53,55,47,34,94,66,24,30.29,30.23,30.16,10,10,10,13,7,17,0.00,4,,353
2013-4-26,80,64,48,52,40,32,84,48,19,30.32,30.26,30.21,10,10,9,10,4,18,0.00,0,,47
2013-4-27,82,66,51,64,57,47,90,72,45,30.23,30.15,30.06,10,10,9,13,3,21,0.00,3,,169
2013-4-28,77,70,63,66,64,60,94,83,62,30.10,30.03,29.96,10,9,5,14,6,21,0.06,5,Rain-Thunderstorm,187
2013-4-29,81,72,61,61,58,53,94,72,39,30.01,29.96,29.91,10,10,6,9,2,,0.00,4,,359
2013-4-30,80,68,57,64,61,55,100,80,54,30.00,29.96,29.92,10,7,0,9,2,,0.01,3,Fog,122